Regional Weather Roundup
Issued by NWS

Home | Current Version | Previous Version | Text Only | Print | Product List | Glossary Off
Versions: 1 2 3 4 5 6 7 8 9 10 11 12 13 14 15 16 17 18 19 20 21 22 23 24 25 26 27 28 29 30 31 32 33 34 35 36 37 38 39 40 41 42 43 44 45 46 47 48 49 50

000
ASUS43 KFSD 301610
RWRSD

WEATHER ROUNDUP FOR SOUTH DAKOTA
NATIONAL WEATHER SERVICE SIOUX FALLS SD
1100 AM CDT TUE JUN 30 2015

NOTE: "FAIR" INDICATES FEW OR NO CLOUDS BELOW 12,000 FEET WITH NO
SIGNIFICANT WEATHER AND/OR OBSTRUCTIONS TO VISIBILITY.


SDZ001>005-009-010-012>017-301700-
NORTHWEST AND NORTH CENTRAL SOUTH DAKOTA

CITY           SKY/WX    TMP DP  RH WIND       PRES   REMARKS
BUFFALO          N/A     76  65  68 VRB3      29.86F
FAITH            N/A     73  60  63 SE20      29.91F
MOBRIDGE       CLOUDY    71  67  87 SE7       29.91S
$$

SDZ012>016-024>037-041>051-057-063-072>074-301700-
SOUTHWEST AND SOUTH CENTRAL SOUTH DAKOTA

CITY           SKY/WX    TMP DP  RH WIND       PRES   REMARKS
RAPID CTY ARPT CLOUDY    74  65  73 W5        29.94F
PIERRE         CLOUDY    74  64  71 SE13      29.90F
CUSTER         CLOUDY    70  58  65 CALM      30.12F
ELLSWORTH AFB  CLOUDY    74  65  73 SW3       29.93
PHILIP         PTSUNNY   80  66  62 E8        29.89F
PINE RIDGE     PTSUNNY   77  58  51 W8        29.97F
SPEARFISH      FAIR      73  64  73 N3        29.98F
WINNER         FAIR      79  58  48 SE17      29.94S
$$

SDZ004>011-016>023-039-040-301700-
NORTHEAST SOUTH DAKOTA

CITY           SKY/WX    TMP DP  RH WIND       PRES   REMARKS
ABERDEEN       CLOUDY    73  63  70 S5        29.93S
WATERTOWN      MOSUNNY   73  62  68 E5        29.94S
BROOKINGS      PTSUNNY   72  64  78 SE3       29.96S
SISSETON         N/A     70  61  73 SE8       29.93F
$$

SDZ017-020-022-023-036>040-048>070-301700-
SOUTHEAST SOUTH DAKOTA

CITY           SKY/WX    TMP DP  RH WIND       PRES   REMARKS
SIOUX FALLS    CLOUDY    71  63  75 SW3       29.96R
HURON          CLOUDY    68  65  90 SE6       29.91F FOG
CHAMBERLAIN    CLOUDY    76  64  67 SE12      29.94S
MITCHELL       CLOUDY    68  66  93 S3        29.92F
YANKTON        CLOUDY    66  64  94 E8        29.94F
$$

ABBREVIATIONS USED IN REMARKS
   TC - TEMPERATURE IN CELSIUS
  WCI - WIND CHILL INDEX
   HX - HEAT INDEX
  VSB - VISIBILITY




USA.gov is the U.S. government's official web portal to all federal, state and local government web resources and services.